When you browse on this site, cookies collect data to enhance your experience and personalize the content and advertising you see.
Visit our Privacy Policy to learn more. By continuing to use the site, you agree to this use of cookies and data.
  • In Belgien
  • Länderverzeichnis
  • Für 7 Tage
  • Wassertemperatur
  • Satellitenkarten
  • Wetterkarte
  • Widgets
  • user-avatar
    Anmelden

    Stündliche Wetter Canberra

    Heute, 19 Februar, Dienstag

    Zeit Temperatur Niederschläge Wind Luftdruck Luftfeuchtigkeit
    00:00 +22°C° 0 mm 1 m/S 703 mmHg 67%
    01:00 +20°C° 0 mm 0 m/S 703 mmHg 68%
    02:00 +19°C° 0 mm 0 m/S 703 mmHg 70%
    03:00 +18°C° 0 mm 0 m/S 703 mmHg 72%
    04:00 +20°C° 0 mm 1 m/S 703 mmHg 71%
    05:00 +21°C° 0 mm 1 m/S 703 mmHg 69%
    06:00 +21°C° 0 mm 1 m/S 703 mmHg 68%
    07:00 +22°C° 0 mm 1 m/S 704 mmHg 66%
    08:00 +24°C° 0 mm 2 m/S 704 mmHg 53%
    09:00 +27°C° 0 mm 2 m/S 705 mmHg 39%
    10:00 +30°C° 0 mm 3 m/S 705 mmHg 26%
    11:00 +32°C° 0 mm 4 m/S 705 mmHg 21%
    12:00 +33°C° 0 mm 5 m/S 705 mmHg 16%
    13:00 +34°C° 0 mm 5 m/S 705 mmHg 11%
    14:00 +34°C° 0 mm 5 m/S 705 mmHg 12%
    15:00 +33°C° 0 mm 4 m/S 705 mmHg 13%
    16:00 +33°C° 0 mm 4 m/S 705 mmHg 13%
    17:00 +28°C° 0 mm 4 m/S 705 mmHg 31%
    18:00 +23°C° 0 mm 4 m/S 705 mmHg 48%
    19:00 +19°C° 0 mm 5 m/S 706 mmHg 65%
    20:00 +18°C° 0 mm 4 m/S 706 mmHg 71%
    21:00 +17°C° 0 mm 4 m/S 707 mmHg 76%
    22:00 +15°C° 0 mm 4 m/S 707 mmHg 81%
    23:00 +16°C° 0 mm 3 m/S 707 mmHg 81%

    Morgen, 20 Februar, Mittwoch

    Zeit Temperatur Niederschläge Wind Luftdruck Luftfeuchtigkeit
    00:00 +16°C° 0 mm 3 m/S 707 mmHg 81%
    01:00 +14°C° 0 mm 3 m/S 707 mmHg 81%
    02:00 +15°C° 0 mm 2 m/S 707 mmHg 84%
    03:00 +14°C° 0 mm 2 m/S 707 mmHg 87%
    04:00 +14°C° 0 mm 1 m/S 706 mmHg 90%
    05:00 +14°C° 0 mm 1 m/S 707 mmHg 87%
    06:00 +15°C° 0 mm 1 m/S 707 mmHg 84%
    07:00 +15°C° 0 mm 1 m/S 707 mmHg 81%
    08:00 +19°C° 0 mm 1 m/S 708 mmHg 70%
    09:00 +21°C° 0 mm 1 m/S 708 mmHg 59%
    10:00 +24°C° 0 mm 1 m/S 708 mmHg 47%
    11:00 +26°C° 0 mm 1 m/S 708 mmHg 40%
    12:00 +28°C° 0 mm 1 m/S 708 mmHg 33%
    13:00 +29°C° 0 mm 2 m/S 708 mmHg 25%
    14:00 +30°C° 0 mm 2 m/S 707 mmHg 24%
    15:00 +30°C° 0 mm 2 m/S 707 mmHg 22%
    16:00 +30°C° 0 mm 2 m/S 707 mmHg 20%
    17:00 +28°C° 0 mm 3 m/S 707 mmHg 33%
    18:00 +25°C° 0 mm 3 m/S 707 mmHg 45%
    19:00 +21°C° 0 mm 4 m/S 707 mmHg 57%
    20:00 +20°C° 0 mm 4 m/S 708 mmHg 65%
    21:00 +18°C° 0 mm 4 m/S 708 mmHg 73%
    22:00 +17°C° 0 mm 4 m/S 709 mmHg 82%
    23:00 +17°C° 0 mm 3 m/S 709 mmHg 82%

    übermorgen, 21 Februar, Donnerstag

    Zeit Temperatur Niederschläge Wind Luftdruck Luftfeuchtigkeit
    00:00 +17°C° 0 mm 3 m/S 709 mmHg 82%
    01:00 +17°C° 0 mm 3 m/S 709 mmHg 82%
    02:00 +16°C° 0 mm 2 m/S 709 mmHg 85%
    03:00 +16°C° 0 mm 2 m/S 709 mmHg 87%
    04:00 +15°C° 0 mm 2 m/S 708 mmHg 90%
    05:00 +15°C° 0 mm 2 m/S 709 mmHg 88%
    06:00 +16°C° 0 mm 2 m/S 709 mmHg 86%
    07:00 +16°C° 0 mm 1 m/S 710 mmHg 85%
    08:00 +19°C° 0 mm 2 m/S 710 mmHg 73%
    09:00 +21°C° 0 mm 2 m/S 711 mmHg 61%
    10:00 +24°C° 0 mm 2 m/S 711 mmHg 49%
    11:00 +26°C° 0 mm 3 m/S 711 mmHg 45%
    12:00 +27°C° 0 mm 3 m/S 711 mmHg 41%
    13:00 +28°C° 0 mm 3 m/S 711 mmHg 37%
    14:00 +27°C° 0 mm 4 m/S 710 mmHg 42%
    15:00 +26°C° 0 mm 5 m/S 710 mmHg 46%
    16:00 +25°C° 0 mm 5 m/S 709 mmHg 51%
    17:00 +22°C° 0 mm 5 m/S 710 mmHg 59%
    18:00 +20°C° 0 mm 5 m/S 710 mmHg 68%
    19:00 +18°C° 0 mm 4 m/S 710 mmHg 77%
    20:00 +17°C° 0 mm 4 m/S 711 mmHg 79%
    21:00 +15°C° 0 mm 4 m/S 712 mmHg 82%
    22:00 +15°C° 0 mm 4 m/S 712 mmHg 84%
    23:00 +15°C° 0 mm 4 m/S 712 mmHg 83%

    22 Februar, Freitag

    Zeit Temperatur Niederschläge Wind Luftdruck Luftfeuchtigkeit
    00:00 +14°C° 0 mm 3 m/S 712 mmHg 83%
    01:00 +14°C° 0 mm 3 m/S 712 mmHg 82%
    02:00 +14°C° 0 mm 3 m/S 712 mmHg 84%
    03:00 +14°C° 0 mm 2 m/S 712 mmHg 87%
    04:00 +13°C° 0 mm 2 m/S 711 mmHg 90%
    05:00 +14°C° 0 mm 2 m/S 712 mmHg 86%
    06:00 +13°C° 0 mm 3 m/S 712 mmHg 82%
    07:00 +13°C° 0 mm 3 m/S 713 mmHg 79%
    08:00 +17°C° 0 mm 3 m/S 713 mmHg 65%
    09:00 +19°C° 0 mm 4 m/S 714 mmHg 52%
    10:00 +22°C° 0 mm 4 m/S 714 mmHg 39%
    11:00 +23°C° 0 mm 4 m/S 714 mmHg 37%
    12:00 +25°C° 0 mm 4 m/S 714 mmHg 35%
    13:00 +27°C° 0 mm 4 m/S 713 mmHg 32%
    14:00 +26°C° 0 mm 5 m/S 713 mmHg 35%
    15:00 +26°C° 0 mm 5 m/S 712 mmHg 37%
    16:00 +25°C° 0 mm 5 m/S 712 mmHg 40%
    17:00 +22°C° 0 mm 5 m/S 712 mmHg 50%
    18:00 +19°C° 0 mm 5 m/S 712 mmHg 60%
    19:00 +17°C° 0 mm 4 m/S 712 mmHg 70%
    20:00 +15°C° 0 mm 4 m/S 713 mmHg 75%
    21:00 +14°C° 0 mm 4 m/S 713 mmHg 81%
    22:00 +13°C° 0 mm 3 m/S 714 mmHg 87%
    23:00 +12°C° 0 mm 3 m/S 713 mmHg 88%

    23 Februar, Samstag

    Zeit Temperatur Niederschläge Wind Luftdruck Luftfeuchtigkeit
    00:00 +12°C° 0 mm 3 m/S 713 mmHg 89%
    01:00 +12°C° 0 mm 3 m/S 713 mmHg 90%
    02:00 +11°C° 0 mm 3 m/S 713 mmHg 90%
    03:00 +11°C° 0 mm 3 m/S 713 mmHg 91%
    04:00 +11°C° 0 mm 3 m/S 712 mmHg 91%
    05:00 +11°C° 0 mm 3 m/S 713 mmHg 86%
    06:00 +12°C° 0 mm 4 m/S 713 mmHg 81%
    07:00 +13°C° 0 mm 4 m/S 714 mmHg 76%
    08:00 +15°C° 0 mm 4 m/S 714 mmHg 65%
    09:00 +19°C° 0 mm 4 m/S 714 mmHg 55%
    10:00 +21°C° 0 mm 5 m/S 715 mmHg 44%
    11:00 +23°C° 0 mm 5 m/S 715 mmHg 41%
    12:00 +25°C° 0 mm 5 m/S 714 mmHg 37%
    13:00 +26°C° 0 mm 5 m/S 714 mmHg 33%
    14:00 +26°C° 0 mm 5 m/S 714 mmHg 36%
    15:00 +25°C° 0 mm 5 m/S 714 mmHg 38%
    16:00 +25°C° 0 mm 5 m/S 714 mmHg 40%
    17:00 +22°C° 0 mm 5 m/S 714 mmHg 50%
    18:00 +19°C° 0 mm 5 m/S 714 mmHg 59%
    19:00 +16°C° 0 mm 5 m/S 714 mmHg 68%
    20:00 +15°C° 0 mm 4 m/S 715 mmHg 73%
    21:00 +14°C° 0 mm 4 m/S 715 mmHg 78%
    22:00 +13°C° 0 mm 4 m/S 715 mmHg 83%
    23:00 +14°C° 0 mm 4 m/S 715 mmHg 82%

    24 Februar, Sonntag

    Zeit Temperatur Niederschläge Wind Luftdruck Luftfeuchtigkeit
    00:00 +14°C° 0 mm 5 m/S 715 mmHg 80%
    01:00 +14°C° 0 mm 5 m/S 715 mmHg 78%
    02:00 +14°C° 0 mm 5 m/S 714 mmHg 77%
    03:00 +14°C° 0 mm 5 m/S 714 mmHg 77%
    04:00 +13°C° 0 mm 4 m/S 714 mmHg 76%
    05:00 +13°C° 0 mm 5 m/S 715 mmHg 75%
    06:00 +14°C° 0 mm 5 m/S 715 mmHg 74%
    07:00 +14°C° 0 mm 6 m/S 716 mmHg 72%
    08:00 +15°C° 0 mm 6 m/S 716 mmHg 65%
    09:00 +17°C° 0 mm 6 m/S 717 mmHg 58%
    10:00 +19°C° 0 mm 6 m/S 717 mmHg 50%
    11:00 +20°C° 0 mm 6 m/S 717 mmHg 47%
    12:00 +21°C° 0 mm 6 m/S 717 mmHg 44%
    13:00 +22°C° 0 mm 6 m/S 716 mmHg 41%
    14:00 +22°C° 0 mm 6 m/S 716 mmHg 42%
    15:00 +22°C° 0 mm 6 m/S 716 mmHg 42%
    16:00 +22°C° 0 mm 6 m/S 716 mmHg 43%
    17:00 +19°C° 0 mm 5 m/S 716 mmHg 52%
    18:00 +16°C° 0 mm 5 m/S 716 mmHg 61%
    19:00 +14°C° 0 mm 4 m/S 716 mmHg 70%
    20:00 +14°C° 0 mm 4 m/S 717 mmHg 73%
    21:00 +13°C° 0 mm 4 m/S 717 mmHg 77%
    22:00 +12°C° 0 mm 4 m/S 717 mmHg 80%
    23:00 +12°C° 0 mm 4 m/S 717 mmHg 80%
    Mehr zeigen